TimeEST,TemperatureF,Dew PointF,Humidity,Sea Level PressureIn,VisibilityMPH,Wind Direction,Wind SpeedMPH,Gust SpeedMPH,PrecipitationIn,Events,Conditions,WindDirDegrees,DateUTC
12:54 AM,37.9,19.0,47,30.18,10.0,NNE,10.4,-,N/A,,Clear,20,2013-03-09 05:54:00
1:54 AM,37.0,18.0,46,30.19,10.0,North,8.1,-,N/A,,Clear,10,2013-03-09 06:54:00
2:54 AM,34.0,17.1,50,30.18,10.0,NNE,10.4,-,N/A,,Clear,30,2013-03-09 07:54:00
3:54 AM,35.1,17.1,48,30.18,10.0,NNE,11.5,-,N/A,,Clear,20,2013-03-09 08:54:00
4:54 AM,33.1,17.1,52,30.21,10.0,NNE,9.2,-,N/A,,Clear,30,2013-03-09 09:54:00
5:54 AM,32.0,17.1,54,30.23,10.0,NNE,8.1,-,N/A,,Clear,20,2013-03-09 10:54:00
6:54 AM,32.0,17.1,54,30.25,10.0,NNE,10.4,-,N/A,,Clear,20,2013-03-09 11:54:00
7:54 AM,35.1,18.0,50,30.26,10.0,North,9.2,-,N/A,,Clear,10,2013-03-09 12:54:00
8:54 AM,37.9,19.0,47,30.26,10.0,NE,13.8,-,N/A,,Clear,40,2013-03-09 13:54:00
9:54 AM,41.0,19.0,41,30.27,10.0,NNE,9.2,-,N/A,,Clear,30,2013-03-09 14:54:00
10:54 AM,42.1,23.0,47,30.27,10.0,East,6.9,-,N/A,,Clear,90,2013-03-09 15:54:00
11:54 AM,43.0,24.1,47,30.28,10.0,East,5.8,-,N/A,,Clear,100,2013-03-09 16:54:00
12:54 PM,45.0,24.1,44,30.27,10.0,East,5.8,-,N/A,,Clear,100,2013-03-09 17:54:00
1:54 PM,45.0,25.0,46,30.26,10.0,ENE,6.9,-,N/A,,Clear,70,2013-03-09 18:54:00
2:54 PM,45.0,26.1,48,30.26,10.0,East,6.9,-,N/A,,Clear,100,2013-03-09 19:54:00
3:54 PM,43.0,27.0,53,30.27,10.0,East,6.9,-,N/A,,Clear,80,2013-03-09 20:54:00
4:54 PM,42.1,26.1,53,30.30,10.0,East,5.8,-,N/A,,Clear,80,2013-03-09 21:54:00
5:54 PM,39.0,27.0,62,30.32,10.0,East,3.5,-,N/A,,Clear,80,2013-03-09 22:54:00
6:54 PM,36.0,27.0,70,30.34,10.0,Calm,Calm,-,N/A,,Clear,0,2013-03-09 23:54:00
7:54 PM,33.1,26.1,75,30.35,10.0,Calm,Calm,-,N/A,,Clear,0,2013-03-10 00:54:00
8:54 PM,32.0,27.0,82,30.36,10.0,Calm,Calm,-,N/A,,Clear,0,2013-03-10 01:54:00
9:54 PM,32.0,27.0,82,30.37,10.0,Calm,Calm,-,N/A,,Clear,0,2013-03-10 02:54:00
10:54 PM,28.9,25.0,85,30.37,8.0,Calm,Calm,-,N/A,,Clear,0,2013-03-10 03:54:00
11:54 PM,28.9,25.0,85,30.38,9.0,Calm,Calm,-,N/A,,Clear,0,2013-03-10 04:54:00